Date String (YYYY-MM-DD hh:mm:ss) UTC,Instrument flags,Ambient pressure (hPa),Sample flow (lpm),Bypass flow (lpm),Sample temperature (°C),Ambient temperature (°C),ASC tube jacket temperature (°C),LED temperature (°C),Box temperature (°C),Sample RH (%),Span deviation,Mass concentration (μg/m³),Mass concentration (μg/m³),Mass concentration (μg/m³)
DateTimeUTC,F1_M11,P_M11,Q1_M11,Q2_M11,T1_M11,T2_M11,T3_M11,T4_M11,T5_M11,U1_M11,ZSPAN_M11,X0_M11,X2_M11,X1_M11
2022-03-09 04:00:00,,0820.7,4.99,0.00,22.2,22.9,00.0,31.1,24.2,09.3,0000.0,0011.02,0005.34,0004.71
2022-03-09 04:01:00,,0820.7,4.99,0.00,22.3,22.7,00.0,31.1,24.2,09.3,0000.0,0010.60,0005.32,0004.71
2022-03-09 04:02:00,,0820.7,5.00,0.00,22.3,22.5,00.0,31.1,24.2,09.3,0000.0,0010.48,0005.34,0004.69
2022-03-09 04:03:00,,0820.7,5.00,0.00,22.3,22.3,00.0,31.2,24.1,09.2,0000.0,0010.57,0005.33,0004.68
2022-03-09 04:04:00,,0820.7,5.00,0.00,22.3,22.1,00.0,31.2,24.1,09.2,0000.0,0010.50,0005.30,0004.67
2022-03-09 04:05:00,,0820.7,5.00,0.00,22.3,22.0,00.0,31.2,24.0,09.2,0000.0,0010.53,0005.31,0004.66
2022-03-09 04:06:00,,0820.8,5.00,0.00,22.2,21.9,00.0,31.2,24.0,09.1,0000.0,0011.14,0005.25,0004.65
2022-03-09 04:07:00,,0820.8,4.99,0.00,22.2,21.7,00.0,31.2,23.9,09.1,0000.0,0011.25,0005.26,0004.65
2022-03-09 04:08:00,,0820.8,5.00,0.00,22.2,21.7,00.0,31.2,23.9,09.2,0000.0,0011.22,0005.23,0004.64
2022-03-09 04:09:00,,0820.8,5.00,0.00,22.2,21.6,00.0,31.2,23.9,09.2,0000.2,0010.67,0005.22,0004.64
2022-03-09 04:10:00,,0820.9,5.00,0.00,22.1,21.5,00.0,31.2,23.9,09.2,0001.5,0010.51,0005.22,0004.64
2022-03-09 04:11:00,,0821.0,4.99,0.00,22.1,21.4,00.0,31.2,23.8,09.2,0002.7,0010.91,0005.20,0004.64
2022-03-09 04:12:00,,0821.0,5.01,0.00,22.1,21.4,00.0,31.1,23.8,09.2,0003.0,0011.04,0005.21,0004.65
2022-03-09 04:13:00,,0820.9,5.01,0.00,22.0,21.3,00.0,31.1,23.8,09.2,0003.2,0011.04,0005.18,0004.66
2022-03-09 04:14:00,,0821.0,4.99,0.00,22.0,21.3,00.0,31.1,23.7,09.3,0002.4,0010.97,0005.16,0004.64
2022-03-09 04:15:00,,0821.0,4.99,0.00,22.0,21.2,00.0,31.1,23.7,09.2,0001.6,0010.66,0005.17,0004.65
2022-03-09 04:16:00,,0821.0,5.00,0.00,22.0,21.2,00.0,31.1,23.7,09.2,0001.6,0010.25,0005.15,0004.64
2022-03-09 04:17:00,,0820.9,5.01,0.00,22.0,21.2,00.0,31.1,23.7,09.2,0002.3,0009.88,0005.17,0004.63
2022-03-09 04:18:00,,0820.9,5.00,0.00,21.9,21.1,00.0,31.1,23.6,09.2,0003.4,0010.28,0005.17,0004.62
2022-03-09 04:19:00,,0821.0,4.99,0.00,21.9,21.1,00.0,31.0,23.6,09.2,0002.9,0010.56,0005.17,0004.62
2022-03-09 04:20:00,,0821.0,5.00,0.00,21.9,21.1,00.0,31.0,23.6,09.2,0003.6,0011.25,0005.17,0004.60
2022-03-09 04:21:00,,0821.0,5.01,0.00,21.9,21.3,00.0,31.0,23.6,09.2,0003.3,0011.40,0005.18,0004.60
2022-03-09 04:22:00,,0821.0,4.98,0.00,22.0,22.0,00.0,31.1,23.8,09.1,0001.6,0011.51,0005.18,0004.60
2022-03-09 04:23:00,,0821.0,5.02,0.00,22.2,22.8,00.0,31.1,24.1,09.0,0000.4,0011.49,0005.15,0004.59
2022-03-09 04:24:00,,0821.0,5.00,0.00,22.3,22.8,00.0,31.1,24.2,09.0,0001.8,0011.51,0005.11,0004.56
2022-03-09 04:25:00,,0821.0,4.99,0.00,22.3,22.6,00.0,31.1,24.2,09.0,0000.5,0012.99,0005.11,0004.56
2022-03-09 04:26:00,,0821.0,4.99,0.00,22.3,22.4,00.0,31.1,24.1,09.0,0001.0,0013.10,0005.10,0004.55
2022-03-09 04:27:00,,0821.0,5.00,0.00,22.3,22.1,00.0,31.1,24.1,09.0,0000.7,0013.12,0005.09,0004.55
2022-03-09 04:28:00,,0821.0,5.02,0.00,22.2,22.0,00.0,31.1,24.0,09.0,0000.0,0013.02,0005.13,0004.57
2022-03-09 04:29:00,,0821.0,5.01,0.00,22.2,21.8,00.0,31.1,23.9,09.0,0002.2,0012.26,0005.11,0004.58
2022-03-09 04:30:00,,0820.9,5.00,0.00,22.2,21.7,00.0,31.1,23.9,09.0,0001.8,0011.74,0005.12,0004.59
2022-03-09 04:31:00,,0821.0,5.00,0.00,22.1,21.5,00.0,31.1,23.8,09.0,0000.6,0011.16,0005.12,0004.60
2022-03-09 04:32:00,,0820.9,4.99,0.00,22.1,21.5,00.0,31.1,23.8,09.1,0000.4,0011.03,0005.16,0004.61
2022-03-09 04:33:00,,0820.9,5.00,0.00,22.1,21.4,00.0,31.1,23.8,09.1,0000.0,0010.74,0005.16,0004.60
2022-03-09 04:34:00,,0820.9,5.01,0.00,22.0,21.4,00.0,31.1,23.8,09.1,0000.0,0010.15,0005.13,0004.60
2022-03-09 04:35:00,,0820.9,4.99,0.00,22.0,21.3,00.0,31.1,23.8,09.1,0000.0,0010.83,0005.15,0004.62
2022-03-09 04:36:00,,0820.9,5.00,0.00,22.0,21.3,00.0,31.1,23.7,09.2,0000.0,0010.00,0005.17,0004.62
2022-03-09 04:37:00,,0820.8,5.01,0.00,22.0,21.2,00.0,31.1,23.7,09.2,0000.0,0009.76,0005.18,0004.62
2022-03-09 04:38:00,,0820.9,5.01,0.00,22.0,21.2,00.0,31.1,23.6,09.2,0000.0,0009.73,0005.15,0004.61
2022-03-09 04:39:00,,0820.8,4.99,0.00,21.9,21.2,00.0,31.1,23.6,09.2,0000.0,0010.17,0005.10,0004.60
2022-03-09 04:40:00,,0820.9,4.99,0.00,21.9,21.1,00.0,31.0,23.5,09.1,0000.0,0010.55,0005.09,0004.58
2022-03-09 04:41:00,,0820.9,5.01,0.00,21.9,21.1,00.0,31.0,23.5,09.2,0000.0,0010.87,0005.08,0004.56
2022-03-09 04:42:00,,0820.9,5.00,0.00,21.9,21.1,00.0,31.0,23.5,09.2,0000.0,0010.90,0005.07,0004.55
2022-03-09 04:43:00,,0820.8,5.00,0.00,21.9,21.8,00.0,31.0,23.7,09.2,0000.0,0010.82,0005.02,0004.54
2022-03-09 04:44:00,,0820.9,4.99,0.00,22.1,22.6,00.0,31.1,24.0,09.2,0000.0,0010.96,0005.03,0004.53
2022-03-09 04:45:00,,0820.8,5.01,0.00,22.2,22.9,00.0,31.1,24.2,09.2,0000.0,0011.00,0005.04,0004.52
2022-03-09 04:46:00,,0820.8,4.99,0.00,22.2,22.6,00.0,31.1,24.1,09.1,0000.0,0010.25,0005.01,0004.51
2022-03-09 04:47:00,,0820.8,5.01,0.00,22.2,22.4,00.0,31.1,24.0,09.2,0000.0,0010.58,0005.00,0004.50
2022-03-09 04:48:00,,0820.7,5.00,0.00,22.2,22.1,00.0,31.1,23.9,09.2,0000.0,0010.85,0004.96,0004.49
2022-03-09 04:49:00,,0820.7,5.00,0.00,22.1,21.9,00.0,31.1,23.8,09.3,0000.0,0010.74,0004.96,0004.49
2022-03-09 04:50:00,,0820.7,5.00,0.00,22.1,21.7,00.0,31.1,23.8,09.3,0000.0,0010.22,0004.97,0004.50
2022-03-09 04:51:00,,0820.6,5.00,0.00,22.1,21.6,00.0,31.1,23.8,09.3,0000.0,0010.29,0004.99,0004.52
2022-03-09 04:52:00,,0820.7,5.00,0.00,22.0,21.5,00.0,31.1,23.7,09.3,0000.0,0010.19,0004.98,0004.51
2022-03-09 04:53:00,,0820.6,5.01,0.00,22.0,21.4,00.0,31.1,23.6,09.2,0001.4,0010.72,0004.96,0004.50
2022-03-09 04:54:00,,0820.5,4.99,0.00,21.9,21.3,00.0,31.1,23.5,09.2,0000.7,0010.86,0004.94,0004.48
2022-03-09 04:55:00,,0820.5,4.99,0.00,21.9,21.2,00.0,31.0,23.5,09.2,0001.2,0010.72,0004.92,0004.46
2022-03-09 04:56:00,,0820.4,5.02,0.00,21.8,21.1,00.0,31.0,23.4,09.4,0001.8,0010.68,0004.91,0004.45
2022-03-09 04:57:00,,0820.4,5.00,0.00,21.8,21.0,00.0,31.0,23.4,09.4,0001.3,0010.68,0004.91,0004.43
2022-03-09 04:58:00,,0820.4,4.99,0.00,21.8,20.9,00.0,31.0,23.3,09.4,0001.1,0010.04,0004.87,0004.41
2022-03-09 04:59:00,,0820.5,5.01,0.00,21.7,20.9,00.0,31.0,23.3,09.5,0001.2,0010.04,0004.88,0004.40
